Other Public Products
Issued by NWS Charleston, SC

Current Version | Previous Version | Graphics & Text | Print | Product List | Glossary On
Versions: 1 2 3 4 5 6 7 8 9 10 11 12 13 14 15 16 17 18 19 20 21 22 23 24 25 26 27 28 29 30 31 32 33 34 35 36 37 38 39 40 41 42 43 44 45 46 47 48 49 50
000
FPUS82 KCHS 291027
OPUCHS

TEST...KCHS/KSAV Gateway Observations...TEST
National Weather Service Charleston SC
600 AM EDT MON MAY 29 2017

NOTE: "fair" indicates few or no clouds below 12,000 feet with no
significant weather and/or obstructions to visibility.

SCZ050-WAZ558-NCZ071-TXZ119-213-PAZ071-DCZ001-FLZ074-172-MI076-
NYZ176-178-MAZ016-IL014-TNZ027-NJZ106-GAZ044-MD014-291100-

...Gateway Observations for Charleston International...

CITY           SKY/WX    TMP DP  RH WIND       PRES   REMARKS
Chas Airport   PTCLDY    73  68  84 W6        29.93R
Seattle        CLEAR     53  50  89 S8        30.08R
Charlotte      PTCLDY    64  62  93 S3        29.93R
Dallas DFW     CLOUDY    68  65  90 N10       29.95F
Dallas Love    MOCLDY    70  67  90 N8        29.95F
Philladelphia  CLOUDY    59  57  93 NE9       29.83R
Wash National  CLOUDY    64  64 100 NE6       29.83R FOG
Baltimore      CLOUDY    62  62 100 NE6       29.82R
Miami          PTCLDY    78  71  79 W3        30.01R
Detroit        PTCLDY    58  55  90 W7        29.77R
Newark         LGT RAIN  58  55  90 NE7       29.89R
Laguardia      LGT RAIN  57  54  89 NE10      29.89R
J F K          RAIN      57  57 100 NE8       29.90R
Boston Logan   CLOUDY    52  49  89 E10       30.02R
Ft. Lauderdale CLEAR     77  71  82 W3        30.00R
Chicago O`Hare PTCLDY    59  50  72 W8        29.76S
Chicago Midway PTCLDY    61  51  70 SW8       29.77F
Houston Bush   CLOUDY    70  67  90 N9        29.87F
Houston Hobby  CLOUDY    72  67  84 N7        29.88R
Nashville      CLOUDY    65  63  93 S5        29.98R
Atlanta        CLOUDY    70  65  84 NW8       29.99S

$$

GAZ044-118-TXZ119-213-NCZ071-DCZ001-MDZ014-506-PAZ021-071-NJZ106-
NYZ176-178-MAZ106-OHZ011-021-055-MIZ076-KYZ091-ILZ014-INZ047-
MNZ060-ONZ431-291100-

...Gateway Observations for Savannah International...

CITY           SKY/WX    TMP DP  RH WIND       PRES   REMARKS
Savannah Arpt  MOCLDY    72  67  84 W6        29.96R
Atlanta        CLOUDY    70  65  84 NW8       29.99S
Charlotte      PTCLDY    64  62  93 S3        29.93R
Dallas DFW     CLOUDY    68  65  90 N10       29.95F
Houston Bush   CLOUDY    70  67  90 N9        29.87F
Wash National  CLOUDY    64  64 100 NE6       29.83R FOG
Wash Dulles    DRZL/FOG  64  63  96 E3        29.82R VSB 1/2
Baltimore      CLOUDY    62  62 100 NE6       29.82R
Philadelphia   CLOUDY    59  57  93 NE9       29.83R
Newark         LGT RAIN  58  55  90 NE7       29.89R
Laguardia      LGT RAIN  57  54  89 NE10      29.89R
J F K          RAIN      57  57 100 NE8       29.90R
Boston         CLOUDY    52  49  89 E10       30.02R
Pittsburg      MOCLDY    60  60 100 W5        29.81R
Akron          PTCLDY    59  56  89 SW6       29.81R
Cleveland      PTCLDY    61  58  90 SW7       29.80R
Cincinnati     FOG       62  62 100 SW8       29.89R VSB<1/4
Columbus       CLEAR     59  59 100 SW7       29.86R
Detroit        PTCLDY    58  55  90 W7        29.77R
Chicago O`Hare PTCLDY    59  50  72 W8        29.76S
Minneapolis    CLOUDY    55  46  71 W12       29.75R
Indianapolis   PTCLDY    57  55  93 SW8       29.87R
Toronto Canada MOCLDY    61  57  88 SW6       29.68R

$$




USA.gov is the U.S. government's official web portal to all federal, state and local government web resources and services.